Weather Roundup
Issued by NWS

Home | Current Version | Previous Version | Graphics & Text | Print | Product List | Glossary Off
Versions: 1 2 3 4 5 6 7 8 9 10 11 12 13 14 15 16 17 18 19 20 21 22 23 24 25 26 27 28 29 30 31 32 33 34 35 36 37 38 39 40 41 42 43 44 45 46 47 48 49 50

000
NZUS93 KARX 171010
HRRWXR

CURRENT HOURLY OBSERVATIONS ACROSS
MUCH OF THE UPPER MISSISSIPPI VALLEY
NATIONAL WEATHER SERVICE LA CROSSE WI
500 AM CDT FRI APR 17 2015


...SOUTHEAST MINNESOTA...


CITY           SKY/WX    TMP DP  RH WIND       PRES   REMARKS
ROCHESTER      CLEAR     51  44  77 W8        30.08F
ROCHESTER/MAYO FAIR      55  46  72 CALM      30.07F
WINONA         CLOUDY    52  45  76 CALM      30.06S
AUSTIN         CLEAR     46  43  87 CALM      30.08S
ALBERT LEA     CLEAR     46  45  93 CALM      30.08S
DODGE CENTER   PTCLDY    48  45  87 CALM      30.08S
PRESTON        CLEAR     52  45  75 CALM      30.08S
OWATONNA       CLEAR     45  39  81 CALM      30.08S
FARIBAULT      CLEAR     45  43  93 CALM      30.08S
$$

...ELSEWHERE IN MINNESOTA...


CITY           SKY/WX    TMP DP  RH WIND       PRES   REMARKS
MINNEAPOLIS    CLEAR     51  45  79 W3        30.08R
INTNL FALLS    CLEAR     26  23  88 CALM      30.09S
DULUTH         CLEAR     45  33  63 CALM      30.08R
RED WING       CLEAR     46  43  87 NW3       30.06S
REDWOOD FALLS  CLEAR     47  40  76 NW6       30.11R
MANKATO        CLEAR     50  41  71 NW3       30.10R
WORTHINGTON    CLEAR     45  36  70 N9        30.13R
FAIRMONT       CLEAR     48  32  53 NW6       30.10R
$$

...SOUTHWEST WISCONSIN...


CITY           SKY/WX    TMP DP  RH WIND       PRES   REMARKS
LA CROSSE      PTCLDY    55  45  68 S5        30.05S
PRAIRIE DU CHI PTCLDY    48  42  80 CALM      30.07R
BOSCOBEL       CLOUDY    46  41  82 CALM      30.07F
LONE ROCK      PTCLDY    46  42  86 CALM      30.06F
PLATTEVILLE    CLEAR     52  42  69 SE6       30.07S
FORT MC COY    MOCLDY    46  38  75 CALM      30.06F
CAMP DOUGLAS   CLOUDY    48  47  96 N2        30.03F
VIROQUA        CLOUDY    56  41  55 W3        30.06F
WIS DELLS      CLOUDY    55  38  53 CALM      30.05F
$$

...ELSEWHERE IN WISCONSIN...


CITY           SKY/WX    TMP DP  RH WIND       PRES   REMARKS
MILWAUKEE      MOCLDY    54  41  61 W6        30.07S
MADISON        CLEAR     47  38  71 CALM      30.06F
GREEN BAY      MOCLDY    44  41  89 CALM      30.05R
EAU CLAIRE     CLEAR     48  41  76 CALM      30.06R
BLACK RVR FLS  CLOUDY    50  40  69 CALM      30.05S
MEDFORD        CLEAR     45  37  76 CALM      30.05S
WAUSAU         PTCLDY    50  42  74 CALM      30.04R
WIS RAPIDS     CLOUDY    50  41  71 CALM      30.06S
MARSHFIELD     PTCLDY    51  39  63 CALM      30.05S
RICE LAKE      CLEAR     43  40  91 CALM      30.08R
$$

...NORTHEAST IOWA...


CITY           SKY/WX    TMP DP  RH WIND       PRES   REMARKS
DECORAH        PTCLDY    50  45  81 CALM      30.06F
MASON CITY     CLEAR     45  42  89 MISG      30.09S
CHARLES CITY   CLEAR     52  48  87 NW3       30.08F
OELWEIN        PTCLDY    54  48  82 CALM      30.08S
$$

...ELSEWHERE IN IOWA...


CITY           SKY/WX    TMP DP  RH WIND       PRES   REMARKS
DES MOINES     PTCLDY    54  49  83 CALM      30.09R
IOWA CITY      CLEAR     49  45  86 W3        30.08S
FORT DODGE     PTCLDY    46  43  87 CALM      30.10R
$$

...NORTHERN ILLINOIS...


CITY           SKY/WX    TMP DP  RH WIND       PRES   REMARKS
CHICAGO-OHARE  CLEAR     50  45  83 W3        30.07F
CHICAGO-MIDWAY CLEAR     51  45  79 CALM      30.08F
MOLINE         CLEAR     47  42  83 CALM      30.06F
ROCKFORD       CLEAR     49  42  77 E5        30.08F
PEORIA         CLEAR     54  49  83 CALM      30.06F HAZE
$$

NOTE: "FAIR" INDICATES FEW OR NO CLOUDS BELOW 12,000 FEET WITH NO
SIGNIFICANT WEATHER AND/OR OBSTRUCTIONS TO VISIBILITY. WIND
SPEEDS ARE IN MILES-PER-HOUR.



USA.gov is the U.S. government's official web portal to all federal, state and local government web resources and services.